Miscellaneous Local Product
Issued by NWS North Platte, NE

Home | Current Version | Previous Version | Text Only | Print | Product List | Glossary On
Versions: 1 2 3 4 5 6 7 8 9 10 11 12 13 14 15 16 17 18 19 20 21 22 23 24 25 26 27 28 29 30 31 32 33 34 35 36 37 38 39 40 41 42 43 44 45 46 47 48 49 50
000
AXUS43 KLBF 261710
MISLBF


WESTERN AND NORTH CENTRAL NEBRASKA HOURLY WEATHER ROUNDUP
NATIONAL WEATHER SERVICE NORTH PLATTE NE
1200 PM CDT FRI AUG 26 2016

NOTE: "FAIR" INDICATES FEW OR NO CLOUDS BELOW 12,000 FEET WITH NO
SIGNIFICANT WEATHER AND/OR OBSTRUCTIONS TO VISIBILITY.

NOTE: STATIONS NOT REPORTING VARIABLES SUCH AS SKY/WEATHER OR
PRESSURE ARE PROVIDED BY RAWS AND APRS NETWORKS AND ARE NOT UNDER
NATIONAL WEATHER SERVICE QUALITY CONTROL.

...OBSERVATIONS IN AND NEAR THE EASTERN PANHANDLE OF NEBRASKA...

CITY           SKY/WX    TMP DP  RH WIND       PRES   REMARKS
PINE RIDGE     LGT RAIN  59  59 100 SW7       30.12F
CHADRON        CLOUDY    62  53  72 SE8       30.11F
ALLIANCE       CLOUDY    56  54  93 S8        30.13R
SIDNEY         HVY RAIN  57  55  93 CALM      30.18S FOG
CRESCENT LAKE    N/A     56  54  93 S3G12       N/A
$$

...OBSERVATIONS IN NORTHERN NEBRASKA AND FAR SOUTHERN SOUTH DAKOTA...

CITY           SKY/WX    TMP DP  RH WIND       PRES   REMARKS
WINNER         CLOUDY    70  52  52 SW5       30.16S
VALENTINE      CLOUDY    68  53  58 S14       30.16F
THEDFORD       MOSUNNY   72  55  54 S13G20    30.15F
AINSWORTH      CLOUDY    68  55  62 SE8       30.17S
O`NEILL        MOSUNNY   73  51  46 S9        30.16F
ORD            CLOUDY    71  53  52 SE8       30.13F
BROKEN BOW     PTSUNNY   68  58  70 SE9       30.14F
VALENTINE NWR    N/A     67  55  66 S9          N/A
BUTTE            N/A     69  53  55 SE7         N/A
HALSEY           N/A     67  53  61 SE8         N/A
EWING            N/A     72  59  62 E3          N/A
$$

...OBSERVATIONS IN SOUTHWEST NEBRASKA AND FAR NORTHEAST COLORADO...

CITY           SKY/WX    TMP DP  RH WIND       PRES   REMARKS
WRAY           CLOUDY    68  55  64 S7        30.14F
HOLYOKE        PTSUNNY   68  54  60 S10       30.14F
IMPERIAL       PTSUNNY   70  52  52 SE9       30.13F
OGALLALA       CLOUDY    71  51  50 SE14      30.12F
NORTH PLATTE   PTSUNNY   70  55  59 S10       30.13F
MCCOOK         CLOUDY    69  57  65 E10       30.13F
LEXINGTON      PTSUNNY   68  58  69 SE8       30.14F
STAPLETON        N/A     69  58  67 CALM        N/A
GOTHENBURG       N/A     65  56  73 SE5         N/A
CALLAWAY         N/A     65  60  85 SE10        N/A
$$

...OBSERVATIONS IN CENTRAL LINCOLN COUNTY AREA...

CITY           SKY/WX    TMP DP  RH WIND       PRES   REMARKS
N.P. AIRPORT   PTSUNNY   70  55  59 S10       30.13F
N.P. DOWNTOWN    N/A     69  58  67 S3G12       N/A
N.P. SOUTHEAST   N/A     69  57  65 SE5G12      N/A
N.P. HILLCREST   N/A     68  57  68 SE8         N/A
$$

...SOME OBSERVATIONS FROM AROUND THE REGION...

CITY           SKY/WX    TMP DP  RH WIND       PRES   REMARKS
DENVER         CLOUDY    63  51  65 VRB5      30.17F
LARAMIE        SUNNY     63  37  38 S9G16     30.21F
CHEYENNE       SUNNY     66  44  45 VRB5      30.18F
SCOTTSBLUFF    CLOUDY    64  54  69 VRB3      30.13R
RAPID CITY     CLOUDY    56  52  86 SE3       30.13F
BISMARCK       CLOUDY    63  50  62 SW7       30.11F
PIERRE         LGT RAIN  58  56  93 NW7       30.18F
SIOUX FALLS    PTSUNNY   71  57  61 SE7       30.16F
OMAHA          CLOUDY    67  60  78 E10       30.12F
GRAND ISLAND   CLOUDY    69  58  67 SE10      30.14F
KANSAS CITY    CLOUDY    77  67  71 SE10      30.10F
WICHITA        PTSUNNY   77  68  73 S8        30.09F
OKLAHOMA CITY  PTSUNNY   86  68  54 CALM      30.07F
DALLAS         PTSUNNY   87  74  64 SE6       30.06F HX  95
AMARILLO       CLOUDY    74  62  66 S13       30.19F
DODGE CITY     CLOUDY    68  65  90 S6        30.13S
HAYS           CLOUDY    70  55  60 NE7       30.10F
GOODLAND       PTSUNNY   69  57  65 SE8       30.13F
$$




USA.gov is the U.S. government's official web portal to all federal, state and local government web resources and services.